THOR ABLESTAR DEB, 134

Orbit data source: Space-Track

THOR ABLESTAR DEB, 134 is space debris in LEO originally from a launch on Thu, 29 Jun 1961 UTC launched from the Air Force Eastern Test Range (AFETR). Debris objects in space refer to the collection of defunct objects orbiting the Earth. Examples of debris include non-operational satellites, rocket bodies, and fragments generated from explosions, collisions, or faulty payload assembly.

Loading next visibility...
THOR ABLESTAR DEB details
Identifier
134, 1961-015U
Orbit
LEO
Last TLE update13 hours ago
Origin
Flag of USUSAF SSD (US)
ManufacturerUnknown
MissionSpacecraft
Bus & MotorUnknown
MassUnknown
Launch date (UTC)
1961-06-29 (64 years ago)
Launch vehicleUnknown
Launch site
Air Force Eastern Test Range (AFETR)
Object type
Payload
Rocket body
Debris
Shape & HBRUnknown
Radar Cross Section1.600 m², Large (>1 m²)

Expand to show TLE details & history

TLE from 13 hours ago
0 THOR ABLESTAR DEB
1   134U 61015U   25040.10736682  .00000376  00000-0  31272-3 0  9999
2   134  66.8797 180.6108 0082454 191.8034 168.1119 13.97532965237252
Epoch: 2025-02-09T02:34Z
Definitive object data (Epoch: 2025-02-09T02:34:36.493Z)
Latitude0.00001°
Longitude2.51311°
Altitude963.21 km
Speed7.341 km/s
True Right ascension12h 02m 26s
True Declination0° 00' 00"
Sunlit
Object was in full shadow at TLE epoch
Visualization TLE readout
Latitude-66.51402°
Longitude-101.04309°
Altitude909.454 km
Speed7.406 km/s
Apparent Right ascension05h 47m 43s
Apparent Declination-54° 11' 43"
Sunlit
Object is in daylight
Visualization observer readout
Local Sidereal Time18:11:08
Azimuth166.508° S
Elevation-75.187°
Doppler factor1
Orbital elements
Apogee altitude960.747 km
Perigee altitude840.712 km
Semi-major axis7,278.867 km
Eccentricity0.0082454
Inclination66.8797°
RAAN180.6108°
Arg. of periapsis191.8034°
True anomaly168.3046°
Mean anomaly168.1119°
Eccentric anomaly168.20844°
Mean motion3.495 °/min
BSTAR0.00031272
Orbital period103 mins
Loading maneuver chart data...

THOR ABLESTAR DEB Visibility forecast

Observer location: undefined°, undefined

Span
Click to sort rows by Start time (UTC) header in descending order
Start Az.
Max El. time (UTC)
Max El. Az.
Max El.
End time (UTC)
End Az.
7 mins2025-02-09 18:34:38.753Z3.734° NNE2025-02-09 18:37:38.753Z38.25° NE19.234°2025-02-09 18:41:38.753Z86.571° E
9 mins2025-02-09 20:20:38.753Z324.398° NNW2025-02-09 20:24:38.753Z238.428° WSW43.566°2025-02-09 20:29:38.753Z161.827° S
8 mins2025-02-10 09:37:38.753Z149.517° SSE2025-02-10 09:40:38.753Z111.371° ESE24.537°2025-02-10 09:45:38.753Z53.938° ENE
10 mins2025-02-10 11:21:38.753Z232.739° WSW2025-02-10 11:26:38.753Z308.423° NW37.669°2025-02-10 11:31:38.753Z16.841° NNE
|